User: anonymous   Login
Location: Unspecified
(0.0000°N, 0.0000°E)
Time: 10:05:59
(UTC+00:00)
Language:

QUETZAL-1 - Orbit

View from above orbital plane
View from above orbital plane
View from above satellite
View from above satellite

Ground track
Ground track

The orbit data is extracted from the following two-line orbital elements,

1 45598U 98067RL  21342.80141671  .00054579  00000-0  39186-3 0  9991
2 45598  51.6341 164.5835 0003485 216.7508 143.3252 15.73089990 91858
Epoch (UTC): 08 December 2021 19:14:02
Eccentricity: 0.0003485
inclination: 51.6341°
perigee height: 348 km
apogee height: 352 km
right ascension of ascending node: 164.5835°
argument of perigee: 216.7508°
revolutions per day: 15.73089990
mean anomaly at epoch: 143.3252°
orbit number at epoch: 9185

The dashed part of the orbit path shows where the satellite is in the earth's shadow,  

DLR